Voltar ao catálogo

STARLINK-35180

AtivoComunicaçõesVLEO
NORAD 65462·PAYLOAD·🇺🇸 United States

Lançado Sep 3, 2025 de Cape Canaveral Space Force Station

Loading…

Próximas Passagens (próximas 24 horas)

TLE

AtualizadoSource: CelesTrak SupGP

Época: Sep 14, 2026, 15:26 UTC

1 65462C 25195E   26257.64354167 -.00013261  00000+0 -39163-3 0  2579
2 65462  53.1575  96.9680 0001195  97.9143 251.5737 15.34411742    11

Acompanhe STARLINK-35180 em tempo real com AllMySat

Download on the App Store